Tracking 25534 objects as of 29-Jan-2022
HD Live streaming from Space Station
objects crossing your sky now

THOR ABLESTAR DEB

Track THOR ABLESTAR DEB now!
10-day predictions


NORAD ID: 516
Int'l Code: 1961-015FT
Perigee: 863.6 km
Apogee: 997.8 km
Inclination: 66.0 °
Period: 103.5 minutes
Semi major axis: 7301 km
RCS: 0.1377 m2 (medium)
Launch date: June 29, 1961
Source: United States (US)
Launch site: AIR FORCE EASTERN TEST RANGE (AFETR)

Note: This is SATELLITE DEBRIS
aabbcc
Your satellite tracking list
Your tracking list is empty




NASA's NSSDC Master Catalog

Two Line Element Set (TLE):
1 00516U 61015FT  22028.84495085  .00000110  00000-0  14742-3 0  9995
2 00516  65.9930 231.0231 0091906 282.2904  76.7890 13.91436761 65638
Source of the keplerian elements: AFSPC